COSMOS 1325

导读

COSMOS 1325是独联体(CIS)于1981年11月28日08:00发射的卫星,属于苏联“宇宙”系列卫星范畴。该系列多承担军事侦察、技术试验等空间任务,是冷战时期苏联太空军事与科研体系的重要组成,体现了当时苏联在航天领域的发展水平,助力其推进空间技术验证与战略情报获取能力。

基本信息
目录编号:
12980
目录名称:
COSMOS 1325
国际标识:
1981-116F
轨道中心:
EARTH
卫星名称:
COSMOS 1325
卫星全名:
--
卫星状态:
在轨 (已飞行16311 天)
发射日期:
1981-11-28 UTC
国别 :
俄罗斯(独联体) (CIS)
星等 :
--
轨道信息
数据来源 国际轨道数据 AOE轨道数据
星历时间 2026-07-25T22:19:13+0800
12小时前
查看轨道信息
2026-07-21T05:00:00+0800
5天前
查看轨道信息
半长轴 7926.831km 7926.831km
偏心率 0.0084879 0.0084821
轨道倾角 73.984° 73.983°
近地点辐角 129.283° 136.087°
升交点赤经 289.087° 295.148°
平近点角 297.884° 267.959°
近地点 1481.411km 1481.457km
远地点 1615.977km 1615.931km
周期 117.060分钟 117.060分钟
每日圈数 12.301368 12.301368
详细信息
使用方式:
暂无
2D轨道图
3D轨道图
轨道高度分析图
轨道倾角分析图
轨道综合分析图
查看轨道综合分析图